Find Local Weather

World > North America > United States > Georgia

Americus, Georgia Regional Weather

Lat: 32.07N, Lon: 84.23W
Wx Zone: GAZ104
Feedback
Expires:201812140700;;765617
ASUS42 KFFC 140603
RWRGA 
WEATHER ROUNDUP FOR GEORGIA
NATIONAL WEATHER SERVICE PEACHTREE CITY GA
100 AM EST FRI DEC 14 2018

NOTE: "FAIR" INDICATES FEW OR NO CLOUDS BELOW 12,000 FEET WITH NO
SIGNIFICANT WEATHER AND/OR OBSTRUCTIONS TO VISIBILITY. 

* = USE WITH CAUTION. THE STATIONS MARKED WITH AN ASTERISK MAY NOT
REPORT WEATHER SUCH AS PRECIPITATION, FOG, OR THUNDER AND ARE NOT 
QUALITY CONTROLLED BY NWS.

THE REMARK "TC" DENOTES TEMPERATURE READING IN DEGREES CELSIUS.


GAZ059>098-102>109-140700-
CENTRAL GEORGIA
  
CITY           SKY/WX    TMP DP  RH WIND       PRES   REMARKS
AUGUSTA-BUSH   LGT RAIN  52  51  97 CALM      30.16F FOG              
6HR MIN TEMP:  52; 6HR MAX TEMP:  54; 6HR PCP:  0.07;                

AUGUSTA-DANIEL LGT RAIN  51  48  89 E9        30.16F FOG              
6HR MIN TEMP:  51; 6HR MAX TEMP:  54; 6HR PCP:  0.07;                

COLUMBUS       LGT RAIN  52  48  86 E14       30.06F                  
6HR MIN TEMP:  52; 6HR MAX TEMP:  56; 6HR PCP:  0.07;                

MACON          LGT RAIN  52  50  93 E8        30.11S                  
6HR MIN TEMP:  52; 6HR MAX TEMP:  54; 6HR PCP:  0.02;                

ROBINS AFB     LGT RAIN  54  51  90 E5        30.10R                  

  
CITY           SKY/WX    TMP DP  RH WIND       PRES   REMARKS
LAGRANGE*      LGT RAIN  51  50  95 E6        30.07F                  
SYLVANIA*      CLOUDY    54  54 100 E5        30.15F                  
MILLEDGEVILLE* CLOUDY    54  50  87 E7        30.14S                  
$$


SKY/WX - Weather  TMP - Temperature  DP - Dew Point  RH - Relative Humidity
WIND - Wind Direction/Speed PRES - Barometric Pressure